Leesburg International Airport
KLEE : now visible

Airfield :











YOU CAN JOIN US ON...

 
LOGIN :

Register | Disclaimer

   EN    FR    IT 

 









Legend :    VFR   Marginal VFR   IFR   Intensive IFR   Very Intensive IFR
Visi :
Ceiling :
>= 8 km
>= 3000ft
5 to 8 km
1000 to 3000 ft
1500m to 5 km
500 to 1000 ft
800 to 1500m
200 to 500 ft
< 800m
< 200 ft
Symbols :   Thunderstorms  Fog  Heavy snow  Heavy precipitations  Wind > 20 kt






- Airport Elevation : 76 ft


KLEE - Leesburg International

CURRENT METAR :
  • 082053Z 15005KT 10SM FEW050 27/14 A3013 RMK AO2 SLP202 T02670144 56013

EXPIRED METARs :
  • 081953Z VRB04KT 10SM FEW050 27/14 A3014 RMK AO2 SLP203 T02670144
  • 081853Z VRB04KT 10SM FEW047 27/15 A3015 RMK AO2 SLP208 T02670150

TAF KLEE
Valid from the 08 at 18:00 until the 09 at 18:00 UTC


081724Z 0818/0918 09006KT P6SM SCT040
FM090000 VRB04KT P6SM FEW040 SCT250
FM091500 18006KT P6SM SCT250



MET'MAP, your aeronautical weather chart ! - Copyright ORBIFLY December 2007 - Disclaimer

ORBIFLY MET'MAP TEAM :

Programming & Development : Alexandra Zaïnal
Concept & original design : Baudouin d'Aumeries
Assistance for programming : Marc-Olivier Méhu
Technical & hardware support : Manuel Goepfert

Contact : metmap@orbifly.com




SOURCES & CREDITS :

   NOAA       Earth
Advisory